TimeADT,TemperatureF,Dew PointF,Humidity,Sea Level PressureIn,VisibilityMPH,Wind Direction,Wind SpeedMPH,Gust SpeedMPH,PrecipitationIn,Events,Conditions,WindDirDegrees,DateUTC
12:00 AM,50.7,-9999,N/A,29.64,-9999.0,West,11.5,-,N/A,,Unknown,270,2012-10-23 03:00:00
1:00 AM,50.2,-9999,N/A,29.64,-9999.0,West,11.5,-,N/A,,Unknown,260,2012-10-23 04:00:00
2:00 AM,49.6,-9999,N/A,29.64,-9999.0,West,20.7,26.5,N/A,,Unknown,280,2012-10-23 05:00:00
3:00 AM,49,,,29.64,,WNW,20.7,,,,,290,2012-10-23 06:00:00
3:00 AM,49.1,-9999,N/A,29.64,-9999.0,WNW,20.7,-,N/A,,Unknown,290,2012-10-23 06:00:00
5:00 AM,47.7,-9999,N/A,29.65,-9999.0,WNW,25.3,-,N/A,,Unknown,290,2012-10-23 08:00:00
6:00 AM,47.1,-9999,N/A,29.68,-9999.0,WNW,18.4,-,N/A,,Unknown,300,2012-10-23 09:00:00
7:00 AM,46.0,-9999,N/A,29.68,-9999.0,WNW,18.4,-,N/A,,Unknown,290,2012-10-23 10:00:00
8:00 AM,46.0,-9999,N/A,29.70,-9999.0,WNW,18.4,-,N/A,,Unknown,290,2012-10-23 11:00:00
9:00 AM,47,,,29.72,,WNW,21.9,,,,,290,2012-10-23 12:00:00
9:00 AM,46.8,-9999,N/A,29.72,-9999.0,WNW,21.9,28.8,N/A,,Unknown,290,2012-10-23 12:00:00
10:00 AM,47.7,-9999,N/A,29.74,-9999.0,WNW,21.9,-,N/A,,Unknown,290,2012-10-23 13:00:00
12:00 PM,49.3,-9999,N/A,29.73,-9999.0,WNW,24.2,29.9,N/A,,Unknown,290,2012-10-23 15:00:00
1:00 PM,47.8,-9999,N/A,29.75,-9999.0,WNW,21.9,28.8,N/A,,Unknown,290,2012-10-23 16:00:00
2:00 PM,47.8,-9999,N/A,29.74,-9999.0,WNW,21.9,-,N/A,,Unknown,290,2012-10-23 17:00:00
3:00 PM,47,,,29.75,,WNW,23.0,,,,,300,2012-10-23 18:00:00
3:00 PM,47.1,-9999,N/A,29.75,-9999.0,WNW,23.0,-,N/A,,Unknown,300,2012-10-23 18:00:00
4:00 PM,47.7,-9999,N/A,29.75,-9999.0,WNW,24.2,-,N/A,,Unknown,300,2012-10-23 19:00:00
5:00 PM,46.9,-9999,N/A,29.77,-9999.0,WNW,20.7,-,N/A,,Unknown,290,2012-10-23 20:00:00
6:00 PM,46.8,-9999,N/A,29.79,-9999.0,WNW,24.2,-,N/A,,Unknown,300,2012-10-23 21:00:00
7:00 PM,46.6,-9999,N/A,29.81,-9999.0,WNW,20.7,-,N/A,,Unknown,300,2012-10-23 22:00:00
8:00 PM,46.2,-9999,N/A,29.83,-9999.0,WNW,23.0,-,N/A,,Unknown,300,2012-10-23 23:00:00
9:00 PM,46,,,29.84,,WNW,23.0,,,,,300,2012-10-24 00:00:00
9:00 PM,46.0,-9999,N/A,29.84,-9999.0,WNW,23.0,28.8,N/A,,Unknown,300,2012-10-24 00:00:00
10:00 PM,45.3,-9999,N/A,29.84,-9999.0,WNW,24.2,29.9,N/A,,Unknown,300,2012-10-24 01:00:00
11:00 PM,46.0,-9999,N/A,29.85,-9999.0,WNW,24.2,-,N/A,,Unknown,300,2012-10-24 02:00:00